Home > Weather > Alexandria > Past weeks

Flag for Egypt Weather for the Past 2 Weeks in Alexandria, Egypt

Now
54 °F

Passing clouds.


Feels Like: 49 °F
Forecast: 55 / 58 °F
Wind: 18 mph from Northwest

Location: Alexandria / Nouzha

Current Time: Feb 7, 2016 at 4:21:11 AM

Latest Report: Feb 7, 2016 at 3:00 AM


Visibility: N/A

Pressure: 30.07 "Hg

Humidity: 58%

Dew point: 39 °F

Location of AlexandriaLocation

Historic Weather in Alexandria — Graph

°F

Alexandria Temperature Yesterday

Maximum temperature yesterday: 61 °F (at 12:00 AM)
Minimum temperature yesterday: 54 °F (at 7:00 PM)
Average temperature yesterday: 58 °F

High & Low Weather Summary for the Past Weeks

 TemperatureHumidityPressure
High68 °F (Feb 4, 1:00 PM)94% (Jan 30, 5:00 AM)30.45 "Hg (Jan 30, 5:00 AM)
Low45 °F (Jan 26, 3:00 AM)41% (Jan 24, 6:00 PM)29.92 "Hg (Feb 5, 6:00 AM)
Average56 °F71%30.21 "Hg
* Reported Jan 23 2:00 AM — Feb 7 2:00 AM, Alexandria, Weather by CustomWeather, © 2016

Note: Actual official high and low records may vary slightly from our data, if they occured in-between our weather recording intervals... More about our weather records

Advertising

Alexandria Weather History for the Previous 24 Hours

 ConditionsComfort  
Time TempWeatherWind HumidityBarometerVisibility
2:00 AM
Sun, Feb 7
55 °FPassing clouds.21 mph51%30.07 "HgN/A
1:00 AM55 °FPassing clouds.21 mph51%30.07 "HgN/A
12:00 AM55 °FPassing clouds.22 mph51%30.07 "HgN/A
10:00 PM
Sat, Feb 6
55 °FPassing clouds.23 mph63%30.07 "HgN/A
9:00 PM54 °FRain showers. Passing clouds.25 mph72%30.09 "Hg4 mi
8:00 PM55 °FPassing clouds.21 mph59%30.07 "HgN/A
7:00 PM54 °FRain showers. Passing clouds.24 mph72%30.07 "Hg4 mi
6:00 PM55 °FPassing clouds.22 mph59%30.04 "HgN/A
5:00 PM57 °FScattered clouds.23 mph55%30.04 "HgN/A
4:00 PM59 °FScattered clouds.20 mph48%30.04 "HgN/A
3:00 PM59 °FScattered clouds.24 mph59%30.04 "HgN/A
2:00 PM59 °FScattered clouds.17 mph51%30.01 "HgN/A
1:00 PM57 °FScattered clouds.18 mph63%30.01 "HgN/A
12:00 PM61 °FScattered clouds.14 mph59%30.04 "HgN/A
11:00 AM57 °FScattered clouds.13 mph72%30.04 "HgN/A
10:00 AM59 °FScattered clouds.18 mph63%30.04 "HgN/A
9:00 AM59 °FScattered clouds.18 mph68%30.01 "HgN/A
8:00 AM59 °FScattered clouds.21 mph51%30.01 "HgN/A
7:00 AM59 °FScattered clouds.23 mph55%30.01 "HgN/A
6:00 AM59 °FPassing clouds.17 mph59%29.98 "HgN/A
5:00 AM57 °FPassing clouds.20 mph67%29.98 "HgN/A
4:00 AM61 °FPassing clouds.20 mph52%29.98 "HgN/A
Weather by CustomWeather, © 2016

See weather overviewHow to use our weather pages